Simultaneous Nadir Overpasses (SNOs) Predictions

Prediction of SNOs between METOP-A and TERRA Satellite Orbit:

Table of predicted SNOs for the next 14.0 days since TLE Epoch: 6/29/2012
Index Date (METOP-A) Time (METOP-A) METOP-A Lat,Lon Date (TERRA) Time (TERRA) TERRA Lat,Lon Distance(km) Time Diff (sec)
1 07/01/2012 21:23:34 -81.04, 76.51 07/01/2012 21:24:48 -80.71, 77.51 40.27 74
2 07/01/2012 22:13:48 81.31,-106.20 07/01/2012 22:13:50 81.31,-106.19 0.59 2
3 07/01/2012 23:04:29 -81.31, 61.30 07/01/2012 23:03:17 -81.31, 61.36 1.07 72
4 07/04/2012 16:57:30 -81.30, 152.11 07/04/2012 16:58:40 -81.29, 152.21 1.85 70
5 07/04/2012 17:48:09 81.30, -40.14 07/04/2012 17:48:06 81.30, -40.04 1.80 3
6 07/07/2012 12:31:51 -81.30,-141.44 07/07/2012 12:32:56 -81.29,-141.30 2.41 65
7 07/07/2012 13:22:30
